Terug naar catalogus

STARLINK-31999

ActiefCommunicatieVLEO
NORAD 60101·PAYLOAD·🇺🇸 United States

Gelanceerd Jun 23, 2024 vanaf Cape Canaveral Space Force Station

Loading…

Volgende Passages (komende 24 uur)

TLE

VersSource: CelesTrak SupGP

Epoch: Sep 14, 2026, 21:16 UTC

1 60101C 24117L   26257.88659722  .00046873  00000+0  13848-2 0  2572
2 60101  53.1575 236.1050 0001403  92.8648 305.2399 15.34367555    14

Volg STARLINK-31999 in realtime met AllMySat

Download on the App Store